Hourly Data Report for October 01, 2015

All times are specified in Local Standard Time (LST). Add 1 hour to adjust for Daylight Saving Time where and when it is observed.

PENTICTON A
BRITISH COLUMBIA

49°27'45.000" N
119°36'08.000" W
344.40 m
1126146
71889
YYF

Download Data

Hourly Data (October 2015)
Hourly Data Report for October 1, 2015
Temp Definition
°C
Dew Point Temp Definition
°C
Rel Hum Definition
%
Wind Dir Definition
10's deg

Wind Spd Definition
km/h
Visibility Definition
km
Stn Press Definition
kPa
Hmdx Definition


Wind Chill Definition


Weather Definition


TIME
00:00 Legend Double Dagger 8.7 2.5 65 1 16 24.1 97.51     LegendNANA
01:00 Legend Double Dagger 8.5 1.2 60 36 13 24.1 97.54     Clear
02:00 Legend Double Dagger 7.6 1.3 64 35 13 24.1 97.57     LegendNANA
03:00 Legend Double Dagger 8.9 2.9 66 33 14 24.1 97.57     LegendNANA
04:00 Legend Double Dagger 7.3 1.0 64 36 12 24.1 97.59     Clear
05:00 Legend Double Dagger 6.7 1.4 69 2 12 24.1 97.65     LegendNANA
06:00 Legend Double Dagger 6.9 1.2 67 1 13 24.1 97.69     LegendNANA
07:00 Legend Double Dagger 8.6 3.9 72 34 15 24.1 97.72     Mainly Clear
08:00 Legend Double Dagger 13.0 6.2 63 35 12 24.1 97.74     LegendNANA
09:00 Legend Double Dagger 15.1 7.2 59 35 17 24.1 97.72     LegendNANA
10:00 Legend Double Dagger 16.2 6.4 52 35 19 24.1 97.67     Mainly Clear
11:00 Legend Double Dagger 16.9 6.5 50 35 22 24.1 97.60     LegendNANA
12:00 Legend Double Dagger 18.7 6.7 45 36 22 24.1 97.53     LegendNANA
13:00 Legend Double Dagger 20.1 6.9 42 1 21 24.1 97.46     Mainly Clear
14:00 Legend Double Dagger 19.5 7.1 44 36 19 24.1 97.42     LegendNANA
15:00 Legend Double Dagger 20.7 7.5 42 36 20 24.1 97.38     LegendNANA
16:00 Legend Double Dagger 20.6 8.4 45 35 19 24.1 97.38     Mainly Clear
17:00 Legend Double Dagger 18.6 7.8 49 32 12 24.1 97.39     LegendNANA
18:00 Legend Double Dagger 15.1 7.2 59 2 11 24.1 97.43     LegendNANA
19:00 Legend Double Dagger 14.4 6.3 58 34 14 24.1 97.49     Mainly Clear
20:00 Legend Double Dagger 12.7 5.7 62 2 14 24.1 97.54     LegendNANA
21:00 Legend Double Dagger 13.0 5.0 58 1 15 24.1 97.56     LegendNANA
22:00 Legend Double Dagger 12.2 4.0 57 35 14 24.1 97.60     Mainly Clear
23:00 Legend Double Dagger 10.9 3.7 61 2 15 24.1 97.61     LegendNANA

Notes on Data Quality.

Legend

  • E = Estimated
  • M = Missing
  • NA = Not Available
  • ‡ = Partner data that is not subject to review by the National Climate Archives
Date modified: